Location: Herm
(49.4830°N, 2.4500°W)
Time: 07:09:53
(UTC+01:00)

VELOX 1 - Visible Passes

Search period start: 26 October 2021 00:00
Search period end: 04 November 2021 23:00
Orbit: 627 x 642 km, 98.3° (Epoch: 25 October)

Date Brightness Start Highest point End Pass type
(mag) Time Alt. Az. Time Alt. Az. Time Alt. Az.
26 Oct ? 18:38:28 10° N 18:42:34 38° WNW 18:46:40 10° SW visible
27 Oct ? 19:00:32 10° N 19:04:09 25° WNW 19:07:47 10° WSW visible
28 Oct ? 19:22:48 10° NNW 19:25:41 17° WNW 19:28:33 10° W visible
29 Oct ? 19:45:36 10° NNW 19:47:08 12° NW 19:48:40 10° WNW visible
30 Oct ? 18:28:58 10° N 18:33:13 47° WNW 18:37:28 10° SW visible
31 Oct ? 17:50:57 10° N 17:54:50 30° WNW 17:58:43 10° SW visible
01 Nov ? 18:13:06 10° NNW 18:16:23 21° WNW 18:19:40 10° WSW visible
02 Nov ? 18:35:33 10° NNW 18:37:52 14° NW 18:40:10 10° W visible
03 Nov ? 17:19:28 10° N 17:23:51 58° WNW 17:28:12 10° SSW visible
04 Nov ? 17:41:23 10° N 17:45:29 37° WNW 17:49:34 10° SW visible
